Regional Weather Roundup
Issued by NWS

Home | Current Version | Previous Version | Text Only | Print | Product List | Glossary On
Versions: 1 2 3 4 5 6 7 8 9 10 11 12 13 14 15 16 17 18 19 20 21 22 23 24 25 26 27 28 29 30 31 32 33 34 35 36 37 38 39 40 41 42 43 44 45 46 47 48 49 50
000
ASUS44 KJAN 301820
RWRMS

MISSISSIPPI HOURLY WEATHER ROUNDUP
NATIONAL WEATHER SERVICE JACKSON MS
100 PM CDT SAT JUL 30 2016

NOTE: "FAIR: INDICATES FEW OR NO CLOUDS BELOW 12,000 FEET WITH NO
SIGNIFICANT WEATHER AND/OR OBSTRUCTIONS TO VISIBILITY.

MSZ001>002-007>008-010>013-018>021-025>028-034>036-301900-
NORTHWEST MISSISSIPPI

CITY           SKY/WX    TMP DP  RH WIND       PRES   REMARKS
CLEVELAND      FAIR      88  78  72 W6        30.01F HX 102
GREENWOOD      MOSUNNY   90  74  59 W8        30.01F HX  99
6HR MIN TEMP:  76; 6HR MAX TEMP:  89; 6HR PCP: TRACE;

GREENVILLE     MOSUNNY   90  74  59 NW12      30.01F HX  99
6HR MIN TEMP:  78; 6HR MAX TEMP:  91;

OXFORD         FAIR      86  70  58 W9G17     30.03F HX  90
WINONA         MOCLDY    87  75  69 W6        30.01F HX  96
$$

MSZ003>006-009-014>017-022>024-029>033-037>039-301900-
NORTHEAST MISSISSIPPI

CITY           SKY/WX    TMP DP  RH WIND       PRES   REMARKS
ABERDEEN       RAIN      79  61  53 NW3       30.04R
COLUMBUS AFB   PTSUNNY   77  75  94 NW7       30.01R THUNDER
6HR MIN TEMP:  77; 6HR MAX TEMP:  92; 6HR PCP:  0.26;

GOLDN TRIANGLE PTSUNNY   86  70  58 N12G23    30.01  THUNDER HX  90
TUPELO         MOSUNNY   88  72  58 SW7       30.00F HX  94
6HR MIN TEMP:  74; 6HR MAX TEMP:  88;

$$

MSZ040-058-301900-
CENTRAL MISSISSIPPI

CITY           SKY/WX    TMP DP  RH WIND       PRES   REMARKS
JACKSON INTL   CLOUDY    90  76  63 W9        30.03F HX 101
6HR MIN TEMP:  75; 6HR MAX TEMP:  91; 6HR PCP:  0.26;

JACKSON HAWKNS PTSUNNY   88  74  63 W8        30.03F HX  96
6HR MIN TEMP:  75; 6HR MAX TEMP:  90; 6HR PCP: TRACE;

MADISON        FAIR      88  73  62 NW8       30.02F HX  96
MERIDIAN KEY   MOSUNNY   93  73  52 S9        30.02F HX 102
6HR MIN TEMP:  77; 6HR MAX TEMP:  94;

MERIDIAN NAS   MOSUNNY   93  69  45 W12       30.02F HX  98
6HR MIN TEMP:  77; 6HR MAX TEMP:  94;

VICKSBURG VKS  PTCLDY    91  75  59 VRB5      30.03F HX 102
$$

MSZ059>079-301900-
SOUTH MISSISSIPPI

CITY           SKY/WX    TMP DP  RH WIND       PRES   REMARKS
BROOKHAVEN     FAIR     N/A N/A N/A W6        30.06F
COLUMBIA       MOCLDY    90  73  58 VRB5      30.07F HX  98
HATTIESBURG    CLOUDY    92  74  55 VRB3      30.04F HX 101
6HR MIN TEMP:  77; 6HR MAX TEMP:  92;

MCCOMB         MOSUNNY   91  72  53 NW8       30.05F HX  98
6HR MIN TEMP:  74; 6HR MAX TEMP:  91;

NATCHEZ        MOSUNNY   91  73  55 SW5       30.03F HX 100
6HR MIN TEMP:  73; 6HR MAX TEMP:  91;

PINE BELT      MOSUNNY   90  72  55 W6        30.05F HX  96
$$

MSZ080>082-301900-
COASTAL MISSISSIPPI

CITY           SKY/WX    TMP DP  RH WIND       PRES   REMARKS
BAY ST LOUIS   MOSUNNY   90  70  51 CALM      30.04F HX  95
BILOXI         MOSUNNY   92  73  54 W3        30.03F HX 100
6HR MIN TEMP:  81; 6HR MAX TEMP:  92;

PASCAGOULA     MOSUNNY   92  74  55 VRB3      30.04F HX 101
6HR MIN TEMP:  75; 6HR MAX TEMP:  93;

GULFPORT       MOSUNNY   93  71  48 VRB5      30.03F HX 100
6HR MIN TEMP:  77; 6HR MAX TEMP:  93;

$$

LAZ007>009-015>016-023>026-301900-
NORTHEAST LOUISIANA

CITY           SKY/WX    TMP DP  RH WIND       PRES   REMARKS
BASTROP        MOCLDY    88  76  66 CALM      30.03F HX  99
TALLULAH/VBURG PTSUNNY   91  78  65 VRB3      30.02F HX 106
6HR MIN TEMP:  75; 6HR MAX TEMP:  92;

VIDALIA        FAIR      88  77  68 CALM      30.06F HX 100
$$



USA.gov is the U.S. government's official web portal to all federal, state and local government web resources and services.